Home   Weather   Sanikiluaq   Past weeks
Flag for Canada

Past Weather in Sanikiluaq, Nunavut, Canada — Yesterday and Last 2 Weeks

Now
37 °F

Light rain. Mostly cloudy.


Feels Like: 30 °F
Forecast: 42 / 40 °F
Wind: 12 mph from Southwest

Location: Kuujjuarapik

Current Time: Oct 15, 2019 at 3:35:50 pm

Latest Report: Oct 15, 2019 at 2:13 pm


Visibility: 7 mi

Pressure: 29.61 "Hg

Humidity: 93%

Dew Point: 36 °F

Location of SanikiluaqLocation

Past Weather in Sanikiluaq — Graph

°F

Sanikiluaq Temperature Yesterday

Maximum temperature yesterday: 55 °F (at 3:00 pm)
Minimum temperature yesterday: 37 °F (at 2:00 am)
Average temperature yesterday: 45 °F

High & Low Weather Summary for the Past Weeks

 TemperatureHumidityPressure
High68 °F (Oct 12, 3:00 pm)100% (Oct 1, 5:00 am)30.33 "Hg (Oct 1, 5:00 am)
Low32 °F (Oct 5, 4:00 am)28% (Oct 12, 3:00 pm)29.17 "Hg (Oct 6, 8:00 pm)
Average44 °F79%29.92 "Hg
* Reported Sep 30 2:00 pm — Oct 15 2:13 pm, Sanikiluaq. Weather by CustomWeather, © 2019

Note: Actual official high and low records may vary slightly from our data, if they occured in-between our weather recording intervals... More about our weather records

Advertising

Sanikiluaq Weather History for the Previous 24 Hours

Scroll right to see more
 ConditionsComfort  
Time TempWeatherWind HumidityBarometerVisibility
2:13 pm
Tue, Oct 15
37 °FLight rain. Mostly cloudy.12 mph93%29.61 "Hg7 mi
2:01 pm37 °FLight rain. More clouds than sun.10 mph93%29.60 "Hg7 mi
1:17 pm37 °FLight rain. Mostly cloudy.14 mph93%29.60 "Hg9 mi
12:57 pm37 °FLight rain. More clouds than sun.14 mph93%29.60 "Hg9 mi
12:33 pm37 °FLight rain. Cloudy.14 mph93%29.60 "Hg9 mi
12:00 pm37 °FLight rain. Overcast.13 mph93%29.61 "Hg9 mi
11:35 am39 °FLight rain. Overcast.13 mph93%29.61 "Hg9 mi
11:16 am39 °FLight rain. Overcast.13 mph93%29.62 "Hg9 mi
6:00 am39 °FLight rain. Fog.3 mph93%29.68 "Hg6 mi
5:00 am41 °FLight rain. Overcast.3 mph87%29.69 "Hg9 mi
4:00 am41 °FLight rain. Overcast.3 mph87%29.70 "Hg9 mi
3:28 am41 °FLight rain. Overcast.No wind87%29.70 "Hg9 mi
3:15 am41 °FQuite cool.3 mph87%29.70 "Hg9 mi
2:51 am41 °FLight rain. Overcast.3 mph87%29.70 "Hg9 mi
2:00 am41 °FQuite cool.5 mph87%29.70 "Hg9 mi
1:00 am43 °FQuite cool.No wind81%29.70 "Hg9 mi
12:00 am43 °FQuite cool.7 mph81%29.70 "Hg9 mi
11:00 pm
Mon, Oct 14
43 °FQuite cool.6 mph81%29.70 "Hg9 mi
10:00 pm43 °FQuite cool.6 mph81%29.70 "Hg9 mi
9:00 pm45 °FQuite cool.9 mph76%29.69 "Hg9 mi
8:00 pm46 °FCool.12 mph66%29.68 "Hg9 mi
7:00 pm46 °FCool.12 mph71%29.68 "Hg9 mi
6:00 pm50 °FCool.7 mph62%29.66 "Hg9 mi
5:00 pm52 °FCool.13 mph58%29.64 "Hg9 mi
4:17 pm52 °FCool.15 mph58%29.63 "Hg9 mi
4:06 pm54 °FLight rain. Cloudy.13 mph54%29.63 "Hg9 mi
3:00 pm55 °FRefreshingly cool.15 mph51%29.63 "Hg9 mi
Weather by CustomWeather, © 2019

See weather overview